GW6554 Weather Reports


Display with metric or nautical units.
time (UTC)temp
F
wind
direction
speed
MPH
gust
MPH
rain 1hr
in
rain 24hr
in
rain mn
in
humidity
%
barometer
mb
20260906230025 97 86 1.0 1.0 0.00 0.00 0.00 42 1008.3
20260906225519 98 108 2.0 3.0 0.00 0.00 0.00 42 1008.5
20260906225015 99 354 0.0 1.0 0.00 0.00 0.00 39 1008.5
20260906224510 99 50 1.0 2.0 0.00 0.00 0.00 40 1008.5
20260906224007 99 34 0.0 1.0 0.00 0.00 0.00 40 1008.5
20260906223502 98 1 1.0 1.0 0.00 0.00 0.00 41 1008.5
20260906223000 98 70 2.0 3.0 0.00 0.00 0.00 40 1008.5
20260906222455 99 39 1.0 2.0 0.00 0.00 0.00 40 1008.5
20260906221953 99 84 1.0 1.0 0.00 0.00 0.00 40 1008.5
20260906221452 99 83 3.0 3.0 0.00 0.00 0.00 38 1008.5
20260906220948 99 61 0.0 1.0 0.00 0.00 0.00 40 1008.6
20260906220443 100 40 3.0 3.0 0.00 0.00 0.00 39 1008.6
20260906215943 100 104 1.0 2.0 0.00 0.00 0.00 40 1008.4
20260906215443 100 22 1.0 1.0 0.00 0.00 0.00 41 1008.3
20260906214940 100 13 1.0 1.0 0.00 0.00 0.00 41 1008.2
20260906214440 100 170 2.0 5.0 0.00 0.00 0.00 40 1008.4
20260906213939 100 219 3.0 3.0 0.00 0.00 0.00 40 1008.4
20260906213434 100 173 2.0 3.0 0.00 0.00 0.00 40 1008.5
20260906212932 101 190 3.0 5.0 0.00 0.00 0.00 39 1008.7
20260906212427 101 41 0.0 1.0 0.00 0.00 0.00 40 1008.7
20260906211927 102 3 1.0 1.0 0.00 0.00 0.00 38 1008.7
20260906211422 102 313 2.0 2.0 0.00 0.00 0.00 38 1008.8
20260906210916 100 12 1.0 1.0 0.00 0.00 0.00 39 1009.0
20260906210413 100 311 3.0 3.0 0.00 0.00 0.00 39 1008.9
20260906205907 100 88 1.0 2.0 0.00 0.00 0.00 40 1009.1
20260906205403 100 49 2.0 3.0 0.00 0.00 0.00 40 1008.9
20260906204858 100 238 1.0 1.0 0.00 0.00 0.00 39 1009.2
20260906204357 100 59 1.0 2.0 0.00 0.00 0.00 40 1009.3
20260906203857 101 102 3.0 5.0 0.00 0.00 0.00 40 1009.4
20260906203352 100 5 1.0 2.0 0.00 0.00 0.00 39 1009.4
20260906202850 99 29 0.0 1.0 0.00 0.00 0.00 42 1009.5
20260906202349 100 8 2.0 2.0 0.00 0.00 0.00 41 1009.5
20260906201849 98 139 3.0 5.0 0.00 0.00 0.00 42 1009.5
20260906201344 96 86 1.0 1.0 0.00 0.00 0.00 45 1009.5
20260906200840 97 30 2.0 2.0 0.00 0.00 0.00 45 1009.5
20260906200336 99 115 3.0 5.0 0.00 0.00 0.00 42 1009.8
20260906195836 99 2 2.0 3.0 0.00 0.00 0.00 42 1009.5
20260906195332 98 210 2.0 2.0 0.00 0.00 0.00 43 1009.9
20260906194828 96 46 2.0 2.0 0.00 0.00 0.00 45 1009.5
20260906194323 97 25 0.0 1.0 0.00 0.00 0.00 45 1009.7
20260906193818 97 50 2.0 2.0 0.00 0.00 0.00 45 1009.9
20260906193313 99 46 3.0 3.0 0.00 0.00 0.00 43 1009.7
20260906192804 99 89 1.0 1.0 0.00 0.00 0.00 43 1009.9
20260906192306 98 105 3.0 5.0 0.00 0.00 0.00 43 1009.8
20260906191802 99 56 1.0 2.0 0.00 0.00 0.00 45 1010.0
20260906191258 98 57 4.0 6.0 0.00 0.00 0.00 44 1010.2
20260906190757 98 68 3.0 5.0 0.00 0.00 0.00 44 1010.2
20260906190251 98 98 2.0 3.0 0.00 0.00 0.00 45 1010.2
20260906185751 98 52 2.0 3.0 0.00 0.00 0.00 46 1010.3
20260906185250 96 72 4.0 7.0 0.00 0.00 0.00 46 1010.3
20260906184745 96 313 1.0 2.0 0.00 0.00 0.00 47 1010.4
20260906184240 96 50 3.0 5.0 0.00 0.00 0.00 48 1010.4
20260906183735 98 159 1.0 2.0 0.00 0.00 0.00 47 1010.6
20260906183232 98 137 3.0 5.0 0.00 0.00 0.00 47 1010.7
20260906182731 97 200 2.0 3.0 0.00 0.00 0.00 48 1010.5
20260906182228 98 203 4.0 5.0 0.00 0.00 0.00 47 1010.7
20260906181722 96 4 1.0 1.0 0.00 0.00 0.00 47 1010.6
20260906181219 97 88 3.0 3.0 0.00 0.00 0.00 48 1010.9
20260906180719 96 196 3.0 3.0 0.00 0.00 0.00 48 1010.7
20260906180214 97 55 2.0 2.0 0.00 0.00 0.00 48 1010.9
20260906175712 96 33 2.0 2.0 0.00 0.00 0.00 49 1010.8
20260906175208 97 243 4.0 5.0 0.00 0.00 0.00 48 1010.9
20260906174706 97 56 2.0 2.0 0.00 0.00 0.00 47 1010.9
20260906174200 96 351 1.0 2.0 0.00 0.00 0.00 48 1011.0
20260906173656 97 34 1.0 1.0 0.00 0.00 0.00 47 1011.1
20260906173151 96 95 3.0 5.0 0.00 0.00 0.00 50 1011.1
20260906172650 95 184 2.0 5.0 0.00 0.00 0.00 48 1011.4
20260906172146 95 89 3.0 6.0 0.00 0.00 0.00 50 1011.1
20260906171646 96 204 2.0 2.0 0.00 0.00 0.00 48 1011.2
20260906171141 95 243 2.0 5.0 0.00 0.00 0.00 50 1011.1
20260906170637 94 93 1.0 2.0 0.00 0.00 0.00 50 1011.3
20260906170137 95 27 5.0 7.0 0.00 0.00 0.00 50 1011.3
20260906165633 95 23 1.0 1.0 0.00 0.00 0.00 52 1011.0
20260906165129 95 79 5.0 7.0 0.00 0.00 0.00 52 1011.2
20260906164627 95 96 2.0 3.0 0.00 0.00 0.00 50 1011.1
20260906164123 94 71 1.0 2.0 0.00 0.00 0.00 53 1011.3
20260906163619 93 54 1.0 2.0 0.00 0.00 0.00 55 1011.3
20260906163114 94 66 1.0 1.0 0.00 0.00 0.00 53 1011.2
20260906162611 93 27 0.0 0.0 0.00 0.00 0.00 56 1011.1
20260906162106 92 164 2.0 2.0 0.00 0.00 0.00 58 1011.3
20260906161601 92 212 3.0 5.0 0.00 0.00 0.00 57 1011.2
20260906161059 92 66 1.0 1.0 0.00 0.00 0.00 57 1010.9
20260906160559 93 85 2.0 2.0 0.00 0.00 0.00 56 1010.9
20260906160057 93 55 1.0 1.0 0.00 0.00 0.00 57 1011.1
20260906155555 91 56 0.0 0.0 0.00 0.00 0.00 60 1010.9
20260906155052 92 55 1.0 2.0 0.00 0.00 0.00 60 1011.1
20260906154547 91 59 1.0 1.0 0.00 0.00 0.00 62 1011.1
20260906154045 91 40 1.0 2.0 0.00 0.00 0.00 62 1010.9
20260906153544 91 47 0.0 0.0 0.00 0.00 0.00 64 1011.0
20260906153040 90 64 4.0 7.0 0.00 0.00 0.00 65 1010.8
20260906152539 90 80 2.0 3.0 0.00 0.00 0.00 65 1010.7
20260906152038 90 50 4.0 5.0 0.00 0.00 0.00 65 1010.7
20260906151534 89 229 3.0 3.0 0.00 0.00 0.00 67 1010.9
20260906151030 89 70 2.0 3.0 0.00 0.00 0.00 68 1010.7
20260906150525 89 80 3.0 3.0 0.00 0.00 0.00 68 1010.6
20260906150020 88 52 0.0 1.0 0.00 0.00 0.00 70 1010.7
20260906145519 87 97 2.0 3.0 0.00 0.00 0.00 71 1010.5
20260906145014 87 15 1.0 1.0 0.00 0.00 0.00 71 1010.6
20260906144508 87 102 3.0 5.0 0.00 0.00 0.00 70 1010.7
20260906144004 87 70 0.0 0.0 0.00 0.00 0.00 71 1010.7
20260906143459 86 52 0.0 0.0 0.00 0.00 0.00 72 1010.7
20260906142955 86 45 0.0 0.0 0.00 0.00 0.00 73 1010.8
20260906142454 86 41 1.0 2.0 0.00 0.00 0.00 73 1010.6
20260906141950 86 28 0.0 1.0 0.00 0.00 0.00 74 1010.8
20260906141449 86 51 0.0 0.0 0.00 0.00 0.00 74 1010.7
20260906140944 86 37 0.0 1.0 0.00 0.00 0.00 75 1010.8
20260906140439 85 67 0.0 0.0 0.00 0.00 0.00 76 1010.6
20260906135937 84 50 1.0 1.0 0.00 0.00 0.00 76 1010.5
20260906135436 84 80 2.0 2.0 0.00 0.00 0.00 76 1010.5
20260906134931 84 50 0.0 0.0 0.00 0.00 0.00 78 1010.5
20260906134427 83 61 0.0 0.0 0.00 0.00 0.00 80 1010.6
20260906133921 83 51 0.0 0.0 0.00 0.00 0.00 80 1010.5
20260906133417 83 50 1.0 1.0 0.00 0.00 0.00 80 1010.7
20260906132913 83 59 0.0 0.0 0.00 0.00 0.00 80 1010.5
20260906132408 83 60 1.0 1.0 0.00 0.00 0.00 81 1010.8
20260906131903 82 57 0.0 0.0 0.00 0.00 0.00 82 1010.8
20260906131359 81 56 0.0 0.0 0.00 0.00 0.00 84 1010.9
20260906130855 80 56 0.0 0.0 0.00 0.00 0.00 87 1010.8
20260906130354 79 54 0.0 0.0 0.00 0.00 0.00 88 1010.6
20260906125853 78 52 0.0 0.0 0.00 0.00 0.00 89 1010.5
20260906125350 78 51 0.0 0.0 0.00 0.00 0.00 90 1010.7
20260906124845 78 56 0.0 0.0 0.00 0.00 0.00 91 1010.5
20260906124341 77 70 0.0 0.0 0.00 0.00 0.00 91 1010.6
20260906123840 77 70 0.0 0.0 0.00 0.00 0.00 91 1010.5
20260906123335 77 70 0.0 0.0 0.00 0.00 0.00 92 1010.4
20260906122835 77 70 0.0 0.0 0.00 0.00 0.00 92 1010.3
20260906122330 77 69 0.0 0.0 0.00 0.00 0.00 92 1010.4
20260906121827 77 69 0.0 0.0 0.00 0.00 0.00 92 1010.2
20260906121322 77 69 0.0 0.0 0.00 0.00 0.00 91 1010.3
20260906120818 77 69 0.0 0.0 0.00 0.00 0.00 91 1009.9
20260906120314 77 69 0.0 0.0 0.00 0.00 0.00 91 1009.9
20260906115810 77 69 0.0 0.0 0.00 0.00 0.00 91 1009.8
20260906115306 77 69 0.0 0.0 0.00 0.00 0.00 91 1010.0
20260906114804 77 69 0.0 0.0 0.00 0.00 0.00 91 1010.0
20260906114300 77 69 0.0 0.0 0.00 0.00 0.00 91 1010.1
20260906113755 77 69 0.0 0.0 0.00 0.00 0.00 90 1009.8
20260906113254 77 69 0.0 0.0 0.00 0.00 0.00 90 1009.8
20260906112755 77 69 0.0 0.0 0.00 0.00 0.00 90 1009.7
20260906112251 77 69 0.0 0.0 0.00 0.00 0.00 90 1009.9
20260906111750 77 69 0.0 0.0 0.00 0.00 0.00 90 1009.3
20260906111249 77 69 0.0 0.0 0.00 0.00 0.00 89 1009.4
20260906110745 77 69 0.0 0.0 0.00 0.00 0.00 89 1009.7
20260906110241 77 69 0.0 0.0 0.00 0.00 0.00 89 1009.8
20260906105740 77 70 0.0 0.0 0.00 0.00 0.00 89 1009.4
20260906105236 77 70 0.0 0.0 0.00 0.00 0.00 89 1009.5
20260906104731 77 70 0.0 0.0 0.00 0.00 0.00 89 1009.3
20260906104230 77 70 0.0 0.0 0.00 0.00 0.00 89 1009.7
20260906103727 77 70 0.0 0.0 0.00 0.00 0.00 88 1009.7
20260906103222 77 70 0.0 0.0 0.00 0.00 0.00 88 1009.7
20260906102718 78 70 0.0 0.0 0.00 0.00 0.00 88 1009.7
20260906102217 78 70 0.0 0.0 0.00 0.00 0.00 88 1009.4
20260906101712 78 70 0.0 0.0 0.00 0.00 0.00 88 1009.4
20260906101207 78 70 0.0 0.0 0.00 0.00 0.00 87 1009.4
20260906100703 78 70 0.0 0.0 0.00 0.00 0.00 87 1009.3
20260906100202 78 70 0.0 0.0 0.00 0.00 0.00 87 1009.4
20260906095657 78 70 0.0 0.0 0.00 0.00 0.00 87 1009.2
20260906095153 78 70 0.0 0.0 0.00 0.00 0.00 87 1009.2
20260906094651 78 70 0.0 0.0 0.00 0.00 0.00 86 1009.0
20260906094147 79 70 0.0 0.0 0.00 0.00 0.00 86 1009.0
20260906093643 79 70 0.0 0.0 0.00 0.00 0.00 85 1009.1
20260906093144 79 70 0.0 0.0 0.00 0.00 0.00 85 1008.8
20260906092638 79 70 0.0 0.0 0.00 0.00 0.00 85 1008.6
20260906092132 79 70 0.0 0.0 0.00 0.00 0.00 84 1008.9
20260906091629 80 71 0.0 0.0 0.00 0.00 0.00 84 1008.9
20260906091125 80 71 0.0 0.0 0.00 0.00 0.00 84 1008.8
20260906090621 80 72 0.0 0.0 0.00 0.00 0.00 83 1008.9
20260906090120 80 129 1.0 1.0 0.00 0.00 0.00 83 1008.7
20260906085619 80 198 0.0 1.0 0.00 0.00 0.00 83 1008.9
20260906085114 80 73 0.0 0.0 0.00 0.00 0.00 83 1008.7
20260906084608 80 83 0.0 0.0 0.00 0.00 0.00 83 1008.7
20260906084107 80 189 0.0 1.0 0.00 0.00 0.00 82 1008.6
20260906083603 80 212 2.0 2.0 0.00 0.00 0.00 82 1008.6
20260906083103 81 190 1.0 1.0 0.00 0.00 0.00 82 1008.6
20260906082558 81 140 1.0 1.0 0.00 0.00 0.00 82 1008.6
20260906082054 81 83 0.0 0.0 0.00 0.00 0.00 81 1008.6
20260906081549 81 158 0.0 0.0 0.00 0.00 0.00 81 1008.5
20260906081044 81 194 0.0 0.0 0.00 0.00 0.00 81 1008.5
20260906080542 81 175 1.0 1.0 0.00 0.00 0.00 81 1008.6
20260906080038 81 182 0.0 0.0 0.00 0.00 0.00 80 1009.0
20260906075537 81 193 1.0 2.0 0.00 0.00 0.00 80 1009.0
20260906075032 81 79 0.0 0.0 0.00 0.00 0.00 80 1008.8
20260906074527 81 122 0.0 0.0 0.00 0.00 0.00 79 1009.0
20260906074025 82 132 0.0 0.0 0.00 0.00 0.00 79 1009.0
20260906073520 82 132 0.0 0.0 0.00 0.00 0.00 78 1008.8
20260906073016 82 134 0.0 1.0 0.00 0.00 0.00 78 1008.8
20260906072511 82 183 0.0 0.0 0.00 0.00 0.00 78 1008.8
20260906072007 82 295 0.0 0.0 0.00 0.00 0.00 78 1008.8
20260906071503 82 228 0.0 0.0 0.00 0.00 0.00 78 1008.9
20260906070958 82 208 1.0 1.0 0.00 0.00 0.00 78 1009.0
20260906070455 82 202 2.0 2.0 0.00 0.00 0.00 77 1009.0
20260906065950 82 233 0.0 1.0 0.00 0.00 0.00 77 1009.0
20260906065449 82 181 3.0 3.0 0.00 0.00 0.00 77 1009.0
20260906064945 83 207 2.0 2.0 0.00 0.00 0.00 76 1009.2
20260906064441 83 164 1.0 1.0 0.00 0.00 0.00 75 1009.0
20260906063935 83 238 1.0 2.0 0.00 0.00 0.00 75 1009.1
20260906063431 83 186 0.0 0.0 0.00 0.00 0.00 74 1009.3
20260906062926 83 181 0.0 0.0 0.00 0.00 0.00 73 1009.0
20260906062426 83 192 2.0 2.0 0.00 0.00 0.00 73 1009.1
20260906061921 83 226 1.0 2.0 0.00 0.00 0.00 73 1009.5
20260906061418 83 183 1.0 1.0 0.00 0.00 0.00 72 1009.3
20260906060911 83 182 0.0 1.0 0.00 0.00 0.00 72 1009.3
20260906060409 83 103 0.0 0.0 0.00 0.00 0.00 71 1009.2
20260906055905 83 104 1.0 1.0 0.00 0.00 0.00 71 1009.2
20260906055400 84 222 1.0 2.0 0.00 0.00 0.00 70 1009.4
20260906054855 84 216 0.0 1.0 0.00 0.00 0.00 70 1009.2
20260906054350 84 106 0.0 1.0 0.00 0.00 0.00 69 1009.3
20260906053847 84 173 0.0 1.0 0.00 0.00 0.00 69 1009.4
20260906053342 84 181 1.0 2.0 0.00 0.00 0.00 69 1009.5
20260906052838 84 76 0.0 0.0 0.00 0.00 0.00 68 1009.3
20260906052334 84 102 0.0 0.0 0.00 0.00 0.00 68 1009.4
20260906051831 84 193 2.0 2.0 0.00 0.00 0.00 68 1009.2
20260906051330 84 226 1.0 1.0 0.00 0.00 0.00 67 1009.4
20260906050826 85 213 2.0 2.0 0.00 0.00 0.00 67 1009.3
20260906050321 85 177 1.0 1.0 0.00 0.00 0.00 67 1009.3
20260906045819 85 157 0.0 1.0 0.00 0.00 0.00 67 1009.5
20260906045314 85 175 0.0 0.0 0.00 0.00 0.00 68 1009.7
20260906044811 85 182 1.0 1.0 0.00 0.00 0.00 67 1009.8
20260906044305 85 158 1.0 1.0 0.00 0.00 0.00 67 1009.8
20260906043801 85 143 2.0 3.0 0.00 0.00 0.00 67 1009.8
20260906043257 85 158 3.0 5.0 0.00 0.00 0.00 67 1009.8
20260906042756 86 179 1.0 2.0 0.00 0.00 0.00 67 1010.0
20260906042256 86 182 1.0 2.0 0.00 0.00 0.00 67 1009.9
20260906041751 86 121 1.0 1.0 0.00 0.00 0.00 67 1010.0
20260906041246 86 86 0.0 1.0 0.00 0.00 0.00 67 1010.1
20260906040742 86 165 1.0 1.0 0.00 0.00 0.00 67 1010.0
20260906040237 86 165 1.0 1.0 0.00 0.00 0.00 67 1010.1
20260906035732 86 197 1.0 1.0 0.00 0.00 0.00 67 1009.9
20260906035228 86 223 2.0 3.0 0.00 0.00 0.00 66 1010.0
20260906034727 86 118 0.0 0.0 0.00 0.00 0.00 66 1010.3
20260906034223 86 224 2.0 2.0 0.00 0.00 0.00 66 1010.1
20260906033718 86 159 1.0 1.0 0.00 0.00 0.00 66 1010.2
20260906033218 86 194 1.0 2.0 0.00 0.00 0.00 66 1010.0
20260906032715 86 59 0.0 0.0 0.00 0.00 0.00 66 1009.8
20260906032215 86 143 1.0 1.0 0.00 0.00 0.00 65 1010.1
20260906031710 87 113 0.0 0.0 0.00 0.00 0.00 65 1010.1
20260906031206 87 216 1.0 2.0 0.00 0.00 0.00 65 1010.2
20260906030705 87 177 2.0 2.0 0.00 0.00 0.00 64 1010.1
20260906030201 87 207 2.0 2.0 0.00 0.00 0.00 64 1010.1
20260906025700 87 91 0.0 1.0 0.00 0.00 0.00 63 1010.4
20260906025200 87 80 0.0 1.0 0.00 0.00 0.00 63 1010.4
20260906024654 87 68 0.0 1.0 0.00 0.00 0.00 63 1010.4
20260906024153 87 67 0.0 1.0 0.00 0.00 0.00 62 1010.2
20260906023649 87 117 0.0 0.0 0.00 0.00 0.00 62 1010.1
20260906023149 87 207 2.0 3.0 0.00 0.00 0.00 62 1009.9
20260906022644 87 174 1.0 1.0 0.00 0.00 0.00 62 1009.9
20260906022140 87 219 2.0 2.0 0.00 0.00 0.00 62 1009.9
20260906021636 87 59 0.0 0.0 0.00 0.00 0.00 62 1009.7
20260906021135 87 150 1.0 1.0 0.00 0.00 0.00 62 1009.7
20260906020635 88 90 1.0 1.0 0.00 0.00 0.00 61 1009.5
20260906020129 88 105 1.0 1.0 0.00 0.00 0.00 61 1009.4
20260906015624 88 199 1.0 2.0 0.00 0.00 0.00 61 1009.4
20260906015122 88 226 3.0 3.0 0.00 0.00 0.00 60 1009.4
20260906014617 88 196 2.0 3.0 0.00 0.00 0.00 60 1009.5
20260906014114 88 85 1.0 1.0 0.00 0.00 0.00 60 1009.2
20260906013609 88 189 3.0 5.0 0.00 0.00 0.00 60 1009.2
20260906013104 89 256 2.0 3.0 0.00 0.00 0.00 59 1009.1
20260906012559 89 223 3.0 3.0 0.00 0.00 0.00 59 1009.1
20260906012059 90 187 1.0 2.0 0.00 0.00 0.00 57 1009.1
20260906011555 90 168 1.0 2.0 0.00 0.00 0.00 56 1008.8
20260906011054 91 78 3.0 5.0 0.00 0.00 0.00 54 1008.7
20260906010550 92 51 1.0 2.0 0.00 0.00 0.00 54 1008.7
20260906010046 93 221 3.0 5.0 0.00 0.00 0.00 52 1008.7
20260906005545 93 132 1.0 2.0 0.00 0.00 0.00 52 1008.5
20260906005044 94 169 4.0 6.0 0.00 0.00 0.00 51 1008.6
20260906004544 94 245 2.0 3.0 0.00 0.00 0.00 49 1008.3
20260906004039 95 71 2.0 2.0 0.00 0.00 0.00 48 1008.4
20260906003534 95 53 0.0 0.0 0.00 0.00 0.00 46 1008.4
20260906003030 95 23 0.0 0.0 0.00 0.00 0.00 45 1008.3
20260906002524 96 73 1.0 2.0 0.00 0.00 0.00 45 1008.5
20260906002019 96 57 0.0 0.0 0.00 0.00 0.00 44 1008.4
20260906001516 96 64 0.0 1.0 0.00 0.00 0.00 44 1008.4
20260906001015 96 48 1.0 1.0 0.00 0.00 0.00 43 1008.5
20260906000512 96 72 1.0 1.0 0.00 0.00 0.00 43 1008.4
20260906000012 96 88 1.0 3.0 0.00 0.00 0.00 43 1008.4
20260905235505 96 68 0.0 1.0 0.00 0.00 0.00 42 1008.3
20260905235000 97 38 1.0 1.0 0.00 0.00 0.00 42 1008.1
20260905234456 97 99 1.0 1.0 0.00 0.00 0.00 42 1007.9
20260905233955 97 28 1.0 1.0 0.00 0.00 0.00 42 1008.0
20260905233452 97 92 2.0 2.0 0.00 0.00 0.00 42 1008.2
20260905232950 97 55 2.0 3.0 0.00 0.00 0.00 43 1007.9
20260905232447 96 47 0.0 0.0 0.00 0.00 0.00 43 1008.2
20260905231942 97 63 0.0 1.0 0.00 0.00 0.00 42 1008.1
20260905231438 97 34 1.0 1.0 0.00 0.00 0.00 42 1008.1
20260905230934 98 46 0.0 1.0 0.00 0.00 0.00 41 1008.2
20260905230432 98 49 0.0 1.0 0.00 0.00 0.00 40 1008.1